TimeCDT,TemperatureF,Dew PointF,Humidity,Sea Level PressureIn,VisibilityMPH,Wind Direction,Wind SpeedMPH,Gust SpeedMPH,PrecipitationIn,Events,Conditions,WindDirDegrees,DateUTC
12:34 AM,75.2,69.8,83,29.72,7.0,SSE,21.9,27.6,N/A,,Overcast,150,2013-04-09 05:34:00
12:53 AM,75.0,70.0,84,29.72,7.0,SSE,19.6,26.5,N/A,,Overcast,150,2013-04-09 05:53:00
1:02 AM,75.2,69.8,83,29.72,7.0,SE,17.3,24.2,N/A,,Overcast,140,2013-04-09 06:02:00
1:16 AM,75.2,69.8,83,29.71,7.0,SE,20.7,28.8,N/A,,Overcast,140,2013-04-09 06:16:00
1:53 AM,75.0,70.0,84,29.70,7.0,SSE,17.3,27.6,N/A,,Mostly Cloudy,150,2013-04-09 06:53:00
2:02 AM,75.2,69.8,83,29.69,7.0,SE,19.6,26.5,N/A,,Scattered Clouds,140,2013-04-09 07:02:00
2:53 AM,75.0,70.0,84,29.67,7.0,SSE,19.6,28.8,N/A,,Clear,150,2013-04-09 07:53:00
3:53 AM,73.9,70.0,87,29.66,6.0,SSE,17.3,-,N/A,,Scattered Clouds,150,2013-04-09 08:53:00
3:57 AM,73.4,69.8,88,29.66,6.0,SSE,17.3,-,N/A,,Mostly Cloudy,150,2013-04-09 08:57:00
4:53 AM,73.9,70.0,87,29.65,6.0,SSE,15.0,-,N/A,,Overcast,150,2013-04-09 09:53:00
5:53 AM,73.9,70.0,87,29.65,6.0,SSE,15.0,-,N/A,,Overcast,160,2013-04-09 10:53:00
6:00 AM,73.4,69.8,88,29.65,6.0,SSE,15.0,23.0,N/A,,Overcast,150,2013-04-09 11:00:00
6:39 AM,73.4,69.8,88,29.66,6.0,SSE,17.3,26.5,N/A,,Overcast,150,2013-04-09 11:39:00
6:53 AM,73.9,70.0,87,29.66,6.0,SSE,17.3,25.3,N/A,,Overcast,150,2013-04-09 11:53:00
7:53 AM,73.9,70.0,87,29.67,5.0,SSE,17.3,-,N/A,,Mostly Cloudy,160,2013-04-09 12:53:00
8:09 AM,75.2,69.8,83,29.67,5.0,SSE,19.6,25.3,N/A,,Haze,160,2013-04-09 13:09:00
8:53 AM,77.0,69.1,76,29.66,6.0,SSE,23.0,33.4,N/A,,Haze,160,2013-04-09 13:53:00
9:53 AM,82.0,68.0,62,29.68,7.0,South,20.7,31.1,N/A,,Clear,170,2013-04-09 14:53:00
10:53 AM,86.0,66.0,51,29.69,6.0,South,19.6,32.2,N/A,,Haze,170,2013-04-09 15:53:00
11:53 AM,88.0,66.9,49,29.69,4.0,South,23.0,32.2,N/A,,Haze,170,2013-04-09 16:53:00
12:53 PM,90.0,66.9,46,29.67,4.0,South,23.0,29.9,N/A,,Haze,170,2013-04-09 17:53:00
1:53 PM,90.0,66.9,46,29.64,4.0,SSE,25.3,33.4,N/A,,Haze,160,2013-04-09 18:53:00
2:53 PM,90.0,69.1,50,29.62,6.0,SSE,21.9,32.2,N/A,,Haze,160,2013-04-09 19:53:00
3:53 PM,89.1,70.0,53,29.60,5.0,SSE,25.3,33.4,N/A,,Haze,160,2013-04-09 20:53:00
4:53 PM,86.0,70.0,59,29.59,5.0,South,26.5,35.7,N/A,,Haze,170,2013-04-09 21:53:00
5:53 PM,84.0,71.1,65,29.59,6.0,SSE,25.3,36.8,N/A,,Haze,150,2013-04-09 22:53:00
6:53 PM,80.1,71.1,74,29.59,6.0,SSE,25.3,33.4,N/A,,Haze,150,2013-04-09 23:53:00
7:05 PM,80.6,71.6,74,29.59,6.0,SSE,24.2,32.2,N/A,,Haze,150,2013-04-10 00:05:00
7:53 PM,78.1,71.1,79,29.59,5.0,SE,23.0,31.1,N/A,,Haze,140,2013-04-10 00:53:00
8:06 PM,78.8,71.6,78,29.58,6.0,SE,21.9,31.1,N/A,,Haze,140,2013-04-10 01:06:00
8:53 PM,78.1,71.1,79,29.61,6.0,SSE,20.7,31.1,N/A,,Haze,150,2013-04-10 01:53:00
9:53 PM,78.1,71.1,79,29.64,6.0,SSE,20.7,29.9,N/A,,Haze,160,2013-04-10 02:53:00
10:15 PM,78.8,71.6,78,29.65,6.0,SSE,20.7,32.2,N/A,,Haze,150,2013-04-10 03:15:00
10:53 PM,77.0,71.1,82,29.66,6.0,SSE,23.0,32.2,N/A,,Haze,160,2013-04-10 03:53:00
11:03 PM,77.0,71.6,83,29.66,6.0,SSE,25.3,34.5,N/A,,Haze,150,2013-04-10 04:03:00
11:53 PM,77.0,71.1,82,29.67,6.0,SSE,26.5,35.7,N/A,,Haze,150,2013-04-10 04:53:00